,,Stat5,,Stat1,,Stat2,,Stat3,,Stat4,,Wind1,,Wind1,
time,status,PA1M_AVG,status,PR1M_SUM,status,RH1M_AVG,status,SR1M_AVG,status,TA1M_AVG,status,W1dAve1m,status,W1sAve1m,
2002-10-17, 00:00:00,VALID,918.735,VALID,0,VALID,97.8284,VALID,-0.0339617,VALID,20.7663,VALID,28,VALID,0.704153,
2002-10-17, 00:01:00,VALID,918.715,VALID,0,VALID,97.7724,VALID,-0.0169808,VALID,20.7732,VALID,17,VALID,0.749219,
2002-10-17, 00:02:00,VALID,918.705,VALID,0,VALID,97.6529,VALID,-0.0679233,VALID,20.7606,VALID,8,VALID,0.651316,
2002-10-17, 00:03:00,VALID,918.711,VALID,0,VALID,97.6109,VALID,-0.0679233,VALID,20.7442,VALID,7,VALID,0.701686,
2002-10-17, 00:04:00,VALID,918.723,VALID,0,VALID,97.5867,VALID,-0.0509425,VALID,20.7312,VALID,3,VALID,0.683594,
2002-10-17, 00:05:00,VALID,918.746,VALID,0,VALID,97.457,VALID,-0.0509425,VALID,20.7116,VALID,6,VALID,0.886513,
2002-10-17, 00:06:00,VALID,918.756,VALID,0,VALID,97.4558,VALID,-0.0339617,VALID,20.6892,VALID,19,VALID,0.858789,
2002-10-17, 00:07:00,VALID,918.764,VALID,0,VALID,97.4723,VALID,-0.0339617,VALID,20.6761,VALID,24,VALID,0.946715,
2002-10-17, 00:08:00,VALID,918.756,VALID,0,VALID,97.4863,VALID,-0.0679233,VALID,20.6532,VALID,36,VALID,1.0038,
2002-10-17, 00:09:00,VALID,918.732,VALID,0,VALID,97.4507,VALID,-0.0679233,VALID,20.6276,VALID,19,VALID,0.942308,
2002-10-17, 00:10:00,VALID,918.686,VALID,0,VALID,97.4952,VALID,-0.0679233,VALID,20.6246,VALID,18,VALID,0.782728,
2002-10-17, 00:11:00,VALID,918.644,VALID,0,VALID,97.5219,VALID,-0.0849042,VALID,20.6308,VALID,17,VALID,0.749414,
2002-10-17, 00:12:00,VALID,918.601,VALID,0,VALID,97.4965,VALID,-0.0849042,VALID,20.5953,VALID,28,VALID,0.801809,
2002-10-17, 00:13:00,VALID,918.544,VALID,0,VALID,97.5753,VALID,-0.101885,VALID,20.5888,VALID,14,VALID,0.94112,
2002-10-17, 00:14:00,VALID,918.512,VALID,0,VALID,97.6287,VALID,-0.0849042,VALID,20.5692,VALID,16,VALID,1.044,
2002-10-17, 00:15:00,VALID,918.472,VALID,0,VALID,97.6834,VALID,-0.0849042,VALID,20.5697,VALID,12,VALID,1.21795,
2002-10-17, 00:16:00,VALID,918.444,VALID,0,VALID,97.6898,VALID,-0.0679233,VALID,20.5535,VALID,12,VALID,1.10837,
2002-10-17, 00:17:00,VALID,918.412,VALID,0,VALID,97.7584,VALID,-0.0849042,VALID,20.5277,VALID,9,VALID,0.769631,
2002-10-17, 00:18:00,VALID,918.412,VALID,0,VALID,97.869,VALID,-0.0339617,VALID,20.5212,VALID,18,VALID,0.553486,
2002-10-17, 00:19:00,VALID,918.409,VALID,0,VALID,97.9148,VALID,-0.0339617,VALID,20.5081,VALID,46,VALID,0.34996,
2002-10-17, 00:20:00,VALID,918.388,VALID,0,VALID,97.8856,VALID,-0.0509425,VALID,20.5016,VALID,89,VALID,0.570122,
2002-10-17, 00:21:00,VALID,918.411,VALID,0,VALID,97.9123,VALID,-0.0339617,VALID,20.4757,VALID,87,VALID,0.271635,
2002-10-17, 00:22:00,VALID,918.421,VALID,0,VALID,98.0077,VALID,-0.0849042,VALID,20.4631,VALID,45,VALID,0.425998,
2002-10-17, 00:23:00,VALID,918.425,VALID,0,VALID,98.0827,VALID,-0.0339617,VALID,20.4429,VALID,27,VALID,0.681784,
2002-10-17, 00:24:00,VALID,918.438,VALID,0,VALID,98.1958,VALID,-0.0849042,VALID,20.4733,VALID,16,VALID,0.744358,
2002-10-17, 00:25:00,VALID,918.419,VALID,0,VALID,98.1908,VALID,-0.0169808,VALID,20.4661,VALID,6,VALID,1.05295,
2002-10-17, 00:26:00,VALID,918.429,VALID,0,VALID,98.2022,VALID,-0.0679233,VALID,20.4531,VALID,7,VALID,0.778783,
2002-10-17, 00:27:00,VALID,918.445,VALID,0,VALID,98.2238,VALID,-0.0679233,VALID,20.4636,VALID,10,VALID,0.792019,
2002-10-17, 00:28:00,VALID,918.446,VALID,0,VALID,98.2187,VALID,-0.101885,VALID,20.4241,VALID,355,VALID,0.985026,
2002-10-17, 00:29:00,VALID,918.457,VALID,0,VALID,98.2124,VALID,-0.0849042,VALID,20.4208,VALID,353,VALID,1.02138,
2002-10-17, 00:30:00,VALID,918.462,VALID,0,VALID,98.2137,VALID,-0.0679233,VALID,20.4179,VALID,360,VALID,0.909539,
2002-10-17, 00:31:00,VALID,918.481,VALID,0,VALID,98.2709,VALID,-0.0339617,VALID,20.4181,VALID,3,VALID,1.00359,
2002-10-17, 00:32:00,VALID,918.467,VALID,0,VALID,98.2976,VALID,-0.0339617,VALID,20.3947,VALID,4,VALID,0.802426,
2002-10-17, 00:33:00,VALID,918.465,VALID,0,VALID,98.3344,VALID,-0.0169808,VALID,20.4044,VALID,8,VALID,0.734797,
2002-10-17, 00:34:00,VALID,918.477,VALID,0,VALID,98.3802,VALID,0.0169808,VALID,20.3902,VALID,13,VALID,1.02246,
2002-10-17, 00:35:00,VALID,918.476,VALID,0,VALID,98.3637,VALID,0.0339617,VALID,20.3805,VALID,9,VALID,1.18349,
2002-10-17, 00:36:00,VALID,918.482,VALID,0,VALID,98.4196,VALID,0.0679233,VALID,20.377,VALID,346,VALID,1.00042,
2002-10-17, 00:37:00,VALID,918.486,VALID,0,VALID,98.3929,VALID,0.0339617,VALID,20.3711,VALID,3,VALID,0.765625,
2002-10-17, 00:38:00,VALID,918.487,VALID,0,VALID,98.4286,VALID,0.0339617,VALID,20.3579,VALID,352,VALID,0.766211,
2002-10-17, 00:39:00,VALID,918.479,VALID,0,VALID,98.4642,VALID,0.0169808,VALID,20.3584,VALID,346,VALID,0.581931,
2002-10-17, 00:40:00,VALID,918.49,VALID,0,VALID,98.501,VALID,0.0339617,VALID,20.3646,VALID,355,VALID,0.804287,
2002-10-17, 00:41:00,VALID,918.472,VALID,0,VALID,98.4743,VALID,0.0169808,VALID,20.3711,VALID,345,VALID,0.711338,
2002-10-17, 00:42:00,VALID,918.472,VALID,0,VALID,98.44,VALID,0.0679233,VALID,20.3646,VALID,334,VALID,0.615349,
2002-10-17, 00:43:00,VALID,918.48,VALID,0,VALID,98.4629,VALID,0.0339617,VALID,20.3641,VALID,15,VALID,0.289864,
2002-10-17, 00:44:00,VALID,918.486,VALID,0,VALID,98.4947,VALID,0.0509425,VALID,20.3934,VALID,6,VALID,0.174137,
2002-10-17, 00:45:00,VALID,918.49,VALID,0,VALID,98.4985,VALID,0.0339617,VALID,20.4198,VALID,359,VALID,0.241797,
2002-10-17, 00:46:00,VALID,918.501,VALID,0,VALID,98.4947,VALID,0.0169808,VALID,20.4392,VALID,359,VALID,0.189145,
2002-10-17, 00:47:00,VALID,918.49,VALID,0,VALID,98.501,VALID,0.0339617,VALID,20.4618,VALID,10,VALID,0.446801,
2002-10-17, 00:48:00,VALID,918.482,VALID,0,VALID,98.487,VALID,0.0169808,VALID,20.475,VALID,12,VALID,0.450658,
2002-10-17, 00:49:00,VALID,918.464,VALID,0,VALID,98.4438,VALID,0.0509425,VALID,20.4936,VALID,16,VALID,0.861979,
2002-10-17, 00:50:00,VALID,918.476,VALID,0,VALID,98.4222,VALID,0.0509425,VALID,20.4968,VALID,7,VALID,0.687891,
2002-10-17, 00:51:00,VALID,918.477,VALID,0,VALID,98.3154,VALID,0,VALID,20.4869,VALID,10,VALID,0.834766,
2002-10-17, 00:52:00,VALID,918.474,VALID,0,VALID,98.2454,VALID,0.0169808,VALID,20.468,VALID,21,VALID,0.746995,
2002-10-17, 00:53:00,VALID,918.488,VALID,0,VALID,98.1653,VALID,0.0509425,VALID,20.4648,VALID,17,VALID,0.697163,
2002-10-17, 00:54:00,VALID,918.471,VALID,0,VALID,98.192,VALID,0.0169808,VALID,20.4742,VALID,27,VALID,0.414444,
2002-10-17, 00:55:00,VALID,918.477,VALID,0,VALID,98.145,VALID,0.0509425,VALID,20.4836,VALID,358,VALID,0.523638,
2002-10-17, 00:56:00,VALID,918.466,VALID,0,VALID,98.1056,VALID,0.0169808,VALID,20.4903,VALID,305,VALID,0.499566,
2002-10-17, 00:57:00,VALID,918.457,VALID,0,VALID,98.0789,VALID,0.0339617,VALID,20.513,VALID,286,VALID,0.486049,
2002-10-17, 00:58:00,VALID,918.454,VALID,0,VALID,98.0611,VALID,0.0169808,VALID,20.5157,VALID,284,VALID,0.187922,
2002-10-17, 00:59:01,VALID,918.419,VALID,0,VALID,98.0738,VALID,0.0849042,VALID,20.5283,VALID,255,VALID,0.27567,
2002-10-17, 01:00:01,VALID,918.404,VALID,0,VALID,98.0687,VALID,0.0679233,VALID,20.5482,VALID,263,VALID,0.32977,
2002-10-17, 01:01:00,VALID,918.404,VALID,0,VALID,98.0382,VALID,0.101885,VALID,20.542,VALID,280,VALID,0.11402,
2002-10-17, 01:02:00,VALID,918.384,VALID,0,VALID,98.0458,VALID,0.0169808,VALID,20.5289,VALID,280,VALID,0.0746299,
2002-10-17, 01:03:00,VALID,918.365,VALID,0,VALID,98.0967,VALID,0.0509425,VALID,20.555,VALID,312,VALID,0.169408,
2002-10-17, 01:04:00,VALID,918.367,VALID,0,VALID,98.0839,VALID,0.0509425,VALID,20.5542,VALID,345,VALID,0.302083,
2002-10-17, 01:05:00,VALID,918.353,VALID,0,VALID,98.0534,VALID,0.0169808,VALID,20.5644,VALID,344,VALID,0.432221,
2002-10-17, 01:06:01,VALID,918.344,VALID,0,VALID,98.0242,VALID,0.0169808,VALID,20.5579,VALID,2,VALID,0.541667,
2002-10-17, 01:07:00,VALID,918.325,VALID,0,VALID,98.0051,VALID,0.0339617,VALID,20.5579,VALID,6,VALID,0.60114,
2002-10-17, 01:08:00,VALID,918.273,VALID,0,VALID,97.9797,VALID,0.0849042,VALID,20.5738,VALID,13,VALID,0.624805,
2002-10-17, 01:09:00,VALID,918.226,VALID,0,VALID,97.9479,VALID,0.0849042,VALID,20.5908,VALID,7,VALID,0.780664,
2002-10-17, 01:10:00,VALID,918.197,VALID,0,VALID,97.8512,VALID,0.0339617,VALID,20.5811,VALID,2,VALID,0.8731,
2002-10-17, 01:11:00,VALID,918.157,VALID,0,VALID,97.7711,VALID,0.0169808,VALID,20.5875,VALID,352,VALID,0.506579,
2002-10-17, 01:12:00,VALID,918.121,VALID,0,VALID,97.6948,VALID,0.0679233,VALID,20.5711,VALID,3,VALID,0.275841,
2002-10-17, 01:13:00,VALID,918.103,VALID,0,VALID,97.7063,VALID,0.0679233,VALID,20.5773,VALID,7,VALID,0,
2002-10-17, 01:14:01,VALID,918.078,VALID,0,VALID,97.7012,VALID,0.0339617,VALID,20.587,VALID,7,VALID,0,
2002-10-17, 01:15:00,VALID,918.071,VALID,0,VALID,97.6923,VALID,0.0509425,VALID,20.5937,VALID,7,VALID,0,
2002-10-17, 01:16:00,VALID,918.059,VALID,0,VALID,97.6936,VALID,0.0339617,VALID,20.6131,VALID,7,VALID,0,
2002-10-17, 01:17:01,VALID,918.054,VALID,0,VALID,97.6681,VALID,0.0509425,VALID,20.6094,VALID,7,VALID,0.132813,
2002-10-17, 01:18:00,VALID,918.037,VALID,0,VALID,97.6808,VALID,0.0339617,VALID,20.63,VALID,7,VALID,0.0130912,
2002-10-17, 01:19:01,VALID,918.013,VALID,0,VALID,97.705,VALID,-0.0509425,VALID,20.6569,VALID,7,VALID,0.260547,
2002-10-17, 01:20:00,VALID,918.005,VALID,0,VALID,97.6821,VALID,-0.0509425,VALID,20.6693,VALID,15,VALID,0.347862,
2002-10-17, 01:21:00,VALID,917.978,VALID,0,VALID,97.6007,VALID,-0.0849042,VALID,20.6823,VALID,15,VALID,0.462081,
2002-10-17, 01:22:00,VALID,917.975,VALID,0,VALID,97.5003,VALID,-0.0849042,VALID,20.6761,VALID,15,VALID,0.443257,
2002-10-17, 01:23:00,VALID,917.963,VALID,0,VALID,97.5244,VALID,-0.0679233,VALID,20.7024,VALID,15,VALID,0.316106,
2002-10-17, 01:24:00,VALID,917.936,VALID,0,VALID,97.4405,VALID,-0.0849042,VALID,20.7119,VALID,15,VALID,0.208333,
2002-10-17, 01:25:00,VALID,917.94,VALID,0,VALID,97.3858,VALID,-0.0849042,VALID,20.7215,VALID,15,VALID,0.00200321,
2002-10-17, 01:26:00,VALID,917.916,VALID,0,VALID,97.3375,VALID,-0.0849042,VALID,20.7374,VALID,14,VALID,0,
2002-10-17, 01:27:00,VALID,917.917,VALID,0,VALID,97.2561,VALID,-0.101885,VALID,20.7506,VALID,2,VALID,0.00120192,
2002-10-17, 01:28:01,VALID,917.899,VALID,0,VALID,97.1569,VALID,-0.0849042,VALID,20.7469,VALID,2,VALID,0,
2002-10-17, 01:29:00,VALID,917.887,VALID,0,VALID,97.1582,VALID,-0.0679233,VALID,20.7563,VALID,2,VALID,0.0010016,
2002-10-17, 01:30:00,VALID,917.884,VALID,0,VALID,97.1124,VALID,-0.0849042,VALID,20.7663,VALID,359,VALID,0.198785,
2002-10-17, 01:31:00,VALID,917.872,VALID,0,VALID,96.9586,VALID,-0.101885,VALID,20.7506,VALID,347,VALID,0.193216,
2002-10-17, 01:32:00,VALID,917.865,VALID,0,VALID,96.9548,VALID,-0.0849042,VALID,20.731,VALID,347,VALID,0.213976,
2002-10-17, 01:33:00,VALID,917.86,VALID,0,VALID,97.0692,VALID,-0.0849042,VALID,20.7342,VALID,347,VALID,0.399306,
2002-10-17, 01:34:01,VALID,917.85,VALID,0,VALID,97.0781,VALID,0.0339617,VALID,20.7289,VALID,357,VALID,0.482525,
2002-10-17, 01:35:00,VALID,917.819,VALID,0,VALID,97.0959,VALID,0.0509425,VALID,20.7523,VALID,355,VALID,0.631968,
2002-10-17, 01:36:00,VALID,917.786,VALID,0,VALID,97.0629,VALID,0.0169808,VALID,20.7388,VALID,343,VALID,0.563322,
2002-10-17, 01:37:01,VALID,917.766,VALID,0,VALID,97.0603,VALID,0,VALID,20.7456,VALID,350,VALID,0.556332,
2002-10-17, 01:38:01,VALID,917.737,VALID,0,VALID,96.9675,VALID,0.0169808,VALID,20.7391,VALID,340,VALID,0.831414,
2002-10-17, 01:39:00,VALID,917.718,VALID,0,VALID,96.839,VALID,0.0169808,VALID,20.7127,VALID,9,VALID,0.902238,
2002-10-17, 01:40:01,VALID,917.686,VALID,0,VALID,96.764,VALID,0.0169808,VALID,20.7103,VALID,13,VALID,1.54544,
2002-10-17, 01:41:00,VALID,917.682,VALID,0,VALID,96.6598,VALID,0.0169808,VALID,20.6844,VALID,15,VALID,1.48184,
2002-10-17, 01:42:00,VALID,917.658,VALID,0,VALID,96.6941,VALID,0,VALID,20.6842,VALID,6,VALID,0.966016,
2002-10-17, 01:43:00,VALID,917.653,VALID,0,VALID,96.6445,VALID,0.0339617,VALID,20.6772,VALID,357,VALID,0.649439,
2002-10-17, 01:44:00,VALID,917.634,VALID,0,VALID,96.6979,VALID,0.0509425,VALID,20.6936,VALID,11,VALID,0.567779,
2002-10-17, 01:45:01,VALID,917.618,VALID,0,VALID,96.6318,VALID,0.0339617,VALID,20.6968,VALID,360,VALID,0.959736,
2002-10-17, 01:46:00,VALID,917.583,VALID,0,VALID,96.6686,VALID,0.0169808,VALID,20.6936,VALID,3,VALID,0.506641,
2002-10-17, 01:47:00,VALID,917.571,VALID,0,VALID,96.8479,VALID,0.0169808,VALID,20.71,VALID,26,VALID,0.47516,
2002-10-17, 01:48:00,VALID,917.563,VALID,0,VALID,96.8251,VALID,0.0169808,VALID,20.7165,VALID,21,VALID,0.839143,
2002-10-17, 01:49:00,VALID,917.548,VALID,0,VALID,96.7729,VALID,0,VALID,20.71,VALID,27,VALID,0.949519,
2002-10-17, 01:50:00,VALID,917.539,VALID,0,VALID,96.7844,VALID,0,VALID,20.7138,VALID,22,VALID,1.21324,
2002-10-17, 01:51:01,VALID,917.538,VALID,0,VALID,96.8085,VALID,0.0169808,VALID,20.7232,VALID,21,VALID,1.04127,
2002-10-17, 01:52:00,VALID,917.573,VALID,0,VALID,96.8378,VALID,0,VALID,20.7394,VALID,18,VALID,0.73787,
2002-10-17, 01:53:01,VALID,917.56,VALID,0,VALID,96.9141,VALID,0,VALID,20.7423,VALID,17,VALID,0.234766,
2002-10-17, 01:54:00,VALID,917.57,VALID,0,VALID,96.867,VALID,0.0339617,VALID,20.7491,VALID,16,VALID,0.0820313,
2002-10-17, 01:55:01,VALID,917.555,VALID,0,VALID,96.8848,VALID,0,VALID,20.7488,VALID,70,VALID,0.140811,
2002-10-17, 01:56:00,VALID,917.544,VALID,0,VALID,96.9306,VALID,0,VALID,20.752,VALID,50,VALID,0.253084,
2002-10-17, 01:57:00,VALID,917.546,VALID,0,VALID,96.9573,VALID,0,VALID,20.7585,VALID,184,VALID,0.220753,
2002-10-17, 01:58:00,VALID,917.546,VALID,0,VALID,96.9891,VALID,0.0169808,VALID,20.7749,VALID,23,VALID,0.388672,
2002-10-17, 01:59:00,VALID,917.54,VALID,0,VALID,97.0222,VALID,0.0169808,VALID,20.7779,VALID,24,VALID,0.0589844,
2002-10-17, 02:00:00,VALID,917.548,VALID,0,VALID,96.9891,VALID,0,VALID,20.7878,VALID,43,VALID,0.651442,
2002-10-17, 02:01:00,VALID,917.545,VALID,0,VALID,97.0374,VALID,0.0169808,VALID,20.7876,VALID,24,VALID,0.655428,
2002-10-17, 02:02:00,VALID,917.546,VALID,0,VALID,97.0056,VALID,0,VALID,20.7973,VALID,34,VALID,0.876143,
2002-10-17, 02:03:00,VALID,917.51,VALID,0,VALID,96.9738,VALID,0,VALID,20.7876,VALID,24,VALID,0.989183,
2002-10-17, 02:04:00,VALID,917.509,VALID,0,VALID,96.937,VALID,0,VALID,20.7684,VALID,42,VALID,0.983507,
2002-10-17, 02:05:00,VALID,917.501,VALID,0,VALID,96.9115,VALID,0,VALID,20.752,VALID,40,VALID,0.773065,
2002-10-17, 02:06:00,VALID,917.497,VALID,0,VALID,96.9878,VALID,0.0169808,VALID,20.7421,VALID,35,VALID,0.606419,
2002-10-17, 02:07:01,VALID,917.496,VALID,0,VALID,97.0374,VALID,0.0169808,VALID,20.7587,VALID,53,VALID,0.653125,
2002-10-17, 02:08:01,VALID,917.486,VALID,0,VALID,96.9993,VALID,0,VALID,20.7525,VALID,49,VALID,0.478618,
2002-10-17, 02:09:00,VALID,917.488,VALID,0,VALID,97.0552,VALID,0.0169808,VALID,20.7523,VALID,51,VALID,0.270693,
2002-10-17, 02:10:00,VALID,917.494,VALID,0,VALID,96.9637,VALID,0,VALID,20.7426,VALID,105,VALID,0.517887,
2002-10-17, 02:11:01,VALID,917.482,VALID,0,VALID,96.9764,VALID,0,VALID,20.7294,VALID,104,VALID,0.673725,
2002-10-17, 02:12:01,VALID,917.477,VALID,0,VALID,97.026,VALID,0.0169808,VALID,20.7165,VALID,113,VALID,0.482372,
2002-10-17, 02:13:00,VALID,917.471,VALID,0,VALID,97.1315,VALID,0,VALID,20.7135,VALID,163,VALID,0.400127,
2002-10-17, 02:14:01,VALID,917.464,VALID,0,VALID,97.2078,VALID,0,VALID,20.7103,VALID,166,VALID,0.38121,
2002-10-17, 02:15:00,VALID,917.463,VALID,0,VALID,97.2561,VALID,0,VALID,20.71,VALID,163,VALID,0.177787,
2002-10-17, 02:16:00,VALID,917.471,VALID,0,VALID,97.2828,VALID,0.0339617,VALID,20.7197,VALID,163,VALID,0.0421875,
2002-10-17, 02:17:00,VALID,917.443,VALID,0,VALID,97.3121,VALID,-0.0169808,VALID,20.7396,VALID,163,VALID,0,
2002-10-17, 02:18:01,VALID,917.442,VALID,0,VALID,97.2956,VALID,0,VALID,20.7458,VALID,163,VALID,0,
2002-10-17, 02:19:00,VALID,917.453,VALID,0,VALID,97.3426,VALID,0.0169808,VALID,20.7617,VALID,163,VALID,0,
2002-10-17, 02:20:00,VALID,917.428,VALID,0,VALID,97.3947,VALID,0,VALID,20.7978,VALID,163,VALID,0.0406651,
2002-10-17, 02:21:00,VALID,917.419,VALID,0,VALID,97.265,VALID,0,VALID,20.797,VALID,216,VALID,0.276563,
2002-10-17, 02:22:01,VALID,917.419,VALID,0,VALID,97.2472,VALID,0,VALID,20.7973,VALID,217,VALID,0.176482,
2002-10-17, 02:23:01,VALID,917.414,VALID,0,VALID,97.2599,VALID,0,VALID,20.8166,VALID,219,VALID,0.0857372,
2002-10-17, 02:24:00,VALID,917.413,VALID,0,VALID,97.2002,VALID,0,VALID,20.8263,VALID,223,VALID,0.00923295,
2002-10-17, 02:25:01,VALID,917.405,VALID,0,VALID,97.1137,VALID,-0.0169808,VALID,20.8234,VALID,223,VALID,0.0777244,
2002-10-17, 02:26:00,VALID,917.395,VALID,0,VALID,97.1557,VALID,0,VALID,20.8231,VALID,223,VALID,0,
2002-10-17, 02:27:01,VALID,917.372,VALID,0,VALID,97.19,VALID,0,VALID,20.8487,VALID,237,VALID,0.166016,
2002-10-17, 02:28:00,VALID,917.351,VALID,0,VALID,97.1531,VALID,0,VALID,20.8756,VALID,269,VALID,0.258635,
2002-10-17, 02:29:01,VALID,917.323,VALID,0,VALID,97.1074,VALID,0,VALID,20.8721,VALID,12,VALID,0.453125,
2002-10-17, 02:30:01,VALID,917.309,VALID,0,VALID,97.0768,VALID,-0.0169808,VALID,20.8683,VALID,16,VALID,0.504317,
2002-10-17, 02:31:01,VALID,917.301,VALID,0,VALID,97.0285,VALID,0.0169808,VALID,20.8648,VALID,16,VALID,0.438902,
2002-10-17, 02:32:00,VALID,917.293,VALID,0,VALID,96.9904,VALID,0.0339617,VALID,20.8686,VALID,16,VALID,0.407252,
2002-10-17, 02:33:00,VALID,917.285,VALID,0,VALID,96.9726,VALID,0.0169808,VALID,20.8718,VALID,16,VALID,0.438101,
2002-10-17, 02:34:01,VALID,917.283,VALID,0,VALID,96.9573,VALID,-0.0679233,VALID,20.8769,VALID,17,VALID,0.365585,
2002-10-17, 02:35:00,VALID,917.279,VALID,0,VALID,96.9878,VALID,-0.101885,VALID,20.8667,VALID,17,VALID,0.219752,
2002-10-17, 02:36:01,VALID,917.269,VALID,0,VALID,97.0247,VALID,-0.101885,VALID,20.8963,VALID,17,VALID,0.269245,
2002-10-17, 02:37:01,VALID,917.268,VALID,0,VALID,96.942,VALID,-0.0849042,VALID,20.8731,VALID,10,VALID,0.198518,
2002-10-17, 02:38:00,VALID,917.249,VALID,0,VALID,96.8136,VALID,-0.101885,VALID,20.8435,VALID,7,VALID,0.205946,
2002-10-17, 02:39:00,VALID,917.26,VALID,0,VALID,96.8683,VALID,-0.0849042,VALID,20.8174,VALID,7,VALID,0.223895,
2002-10-17, 02:40:01,VALID,917.276,VALID,0,VALID,96.9738,VALID,-0.0849042,VALID,20.8309,VALID,18,VALID,0.636502,
2002-10-17, 02:41:01,VALID,917.293,VALID,0,VALID,97.0222,VALID,-0.0849042,VALID,20.8306,VALID,23,VALID,0.797526,
2002-10-17, 02:42:01,VALID,917.321,VALID,0,VALID,97.0527,VALID,-0.101885,VALID,20.8309,VALID,20,VALID,0.677837,
2002-10-17, 02:43:01,VALID,917.344,VALID,0,VALID,97.0679,VALID,-0.118866,VALID,20.8473,VALID,19,VALID,0.637247,
2002-10-17, 02:44:01,VALID,917.368,VALID,0,VALID,97.1112,VALID,-0.118866,VALID,20.8538,VALID,22,VALID,0.543791,
2002-10-17, 02:45:01,VALID,917.395,VALID,0,VALID,97.1328,VALID,-0.101885,VALID,20.8602,VALID,22,VALID,0.52426,
2002-10-17, 02:46:01,VALID,917.412,VALID,0,VALID,97.0908,VALID,-0.101885,VALID,20.8699,VALID,32,VALID,0.454564,
2002-10-17, 02:47:01,VALID,917.407,VALID,0,VALID,97.0222,VALID,-0.101885,VALID,20.8532,VALID,1,VALID,0.254856,
2002-10-17, 02:48:01,VALID,917.417,VALID,0,VALID,97.0514,VALID,-0.0679233,VALID,20.8594,VALID,8,VALID,0.150082,
2002-10-17, 02:49:01,VALID,917.418,VALID,0,VALID,97.0565,VALID,0.0169808,VALID,20.8592,VALID,8,VALID,0.135135,
2002-10-17, 02:50:01,VALID,917.409,VALID,0,VALID,97.0794,VALID,0.0169808,VALID,20.8549,VALID,9,VALID,0.354688,
2002-10-17, 02:51:01,VALID,917.423,VALID,0,VALID,97.0438,VALID,0.0169808,VALID,20.8549,VALID,9,VALID,0.269231,
2002-10-17, 02:52:01,VALID,917.398,VALID,0,VALID,97.0756,VALID,0.0679233,VALID,20.8586,VALID,23,VALID,0.754012,
2002-10-17, 02:53:01,VALID,917.393,VALID,0,VALID,97.1264,VALID,0.0169808,VALID,20.8651,VALID,15,VALID,0.746795,
2002-10-17, 02:54:01,VALID,917.397,VALID,0,VALID,97.1048,VALID,0.0339617,VALID,20.8654,VALID,16,VALID,0.624609,
2002-10-17, 02:55:01,VALID,917.379,VALID,0,VALID,97.1366,VALID,0.0339617,VALID,20.8554,VALID,24,VALID,0.527845,
2002-10-17, 02:56:01,VALID,917.383,VALID,0,VALID,97.1163,VALID,0.0169808,VALID,20.8484,VALID,26,VALID,0.257813,
2002-10-17, 02:57:01,VALID,917.385,VALID,0,VALID,97.1048,VALID,0.0339617,VALID,20.8489,VALID,25,VALID,0.116186,
2002-10-17, 02:58:01,VALID,917.374,VALID,0,VALID,97.0908,VALID,0,VALID,20.8358,VALID,355,VALID,0.0631893,
2002-10-17, 02:59:01,VALID,917.391,VALID,0,VALID,97.0603,VALID,0,VALID,20.8102,VALID,311,VALID,0.00961538,
2002-10-17, 03:00:01,VALID,917.389,VALID,0,VALID,97.1519,VALID,0.0509425,VALID,20.8037,VALID,2,VALID,0.420025,
2002-10-17, 03:01:01,VALID,917.393,VALID,0,VALID,97.2905,VALID,0.0509425,VALID,20.8161,VALID,2,VALID,0.283398,
2002-10-17, 03:02:01,VALID,917.387,VALID,0,VALID,97.2854,VALID,0.0169808,VALID,20.8094,VALID,1,VALID,0.302837,
2002-10-17, 03:03:01,VALID,917.386,VALID,0,VALID,97.2828,VALID,-0.0339617,VALID,20.8204,VALID,347,VALID,0.326823,
2002-10-17, 03:04:00,VALID,917.385,VALID,0,VALID,97.1023,VALID,-0.101885,VALID,20.7824,VALID,327,VALID,0.462788,
2002-10-17, 03:05:00,VALID,917.378,VALID,0,VALID,97.0629,VALID,-0.101885,VALID,20.7504,VALID,307,VALID,0.488582,
2002-10-17, 03:06:00,VALID,917.363,VALID,0,VALID,97.1442,VALID,-0.101885,VALID,20.7208,VALID,302,VALID,0.22207,
2002-10-17, 03:07:00,VALID,917.352,VALID,0,VALID,97.2663,VALID,-0.0849042,VALID,20.724,VALID,305,VALID,0.207227,
2002-10-17, 03:08:00,VALID,917.355,VALID,0,VALID,97.3375,VALID,-0.101885,VALID,20.7175,VALID,312,VALID,0.0408654,
2002-10-17, 03:09:00,VALID,917.366,VALID,0,VALID,97.3668,VALID,-0.0849042,VALID,20.7178,VALID,312,VALID,0.0172697,
2002-10-17, 03:10:00,VALID,917.347,VALID,0,VALID,97.4138,VALID,-0.0849042,VALID,20.7477,VALID,312,VALID,0.000381098,
2002-10-17, 03:11:00,VALID,917.352,VALID,0,VALID,97.4545,VALID,-0.101885,VALID,20.7471,VALID,312,VALID,0.0340545,
2002-10-17, 03:12:00,VALID,917.344,VALID,0,VALID,97.4583,VALID,-0.101885,VALID,20.7504,VALID,18,VALID,0.25803,
2002-10-17, 03:13:00,VALID,917.331,VALID,0,VALID,97.4354,VALID,-0.0849042,VALID,20.7625,VALID,22,VALID,0.442336,
2002-10-17, 03:14:00,VALID,917.329,VALID,0,VALID,97.396,VALID,-0.0679233,VALID,20.7762,VALID,22,VALID,0.569257,
2002-10-17, 03:15:00,VALID,917.33,VALID,0,VALID,97.349,VALID,-0.0509425,VALID,20.7697,VALID,22,VALID,0.259375,
2002-10-17, 03:16:00,VALID,917.328,VALID,0,VALID,97.3515,VALID,-0.0849042,VALID,20.7652,VALID,22,VALID,0.0824424,
2002-10-17, 03:17:00,VALID,917.332,VALID,0,VALID,97.2727,VALID,-0.0849042,VALID,20.7622,VALID,238,VALID,0.471284,
2002-10-17, 03:18:00,VALID,917.338,VALID,0,VALID,97.2307,VALID,-0.0509425,VALID,20.7329,VALID,229,VALID,0.532895,
2002-10-17, 03:19:00,VALID,917.333,VALID,0,VALID,97.2828,VALID,0.0509425,VALID,20.7095,VALID,235,VALID,0.512952,
2002-10-17, 03:20:00,VALID,917.347,VALID,0,VALID,97.3655,VALID,0.0339617,VALID,20.7033,VALID,235,VALID,0.431691,
2002-10-17, 03:21:00,VALID,917.36,VALID,0,VALID,97.4634,VALID,0.0169808,VALID,20.6804,VALID,234,VALID,0.225296,
2002-10-17, 03:22:00,VALID,917.362,VALID,0,VALID,97.5562,VALID,0.0679233,VALID,20.6737,VALID,234,VALID,0.131611,
2002-10-17, 03:23:00,VALID,917.371,VALID,0,VALID,97.6134,VALID,0.0849042,VALID,20.664,VALID,234,VALID,0.0135135,
2002-10-17, 03:24:00,VALID,917.356,VALID,0,VALID,97.6732,VALID,0.0169808,VALID,20.6707,VALID,234,VALID,0.00078125,
2002-10-17, 03:25:00,VALID,917.38,VALID,0,VALID,97.747,VALID,0.0849042,VALID,20.6802,VALID,348,VALID,0.632227,
2002-10-17, 03:26:00,VALID,917.354,VALID,0,VALID,97.7673,VALID,0.0169808,VALID,20.7038,VALID,13,VALID,1.12437,
2002-10-17, 03:27:00,VALID,917.34,VALID,0,VALID,97.7203,VALID,0.0509425,VALID,20.6802,VALID,15,VALID,1.02097,
2002-10-17, 03:28:00,VALID,917.321,VALID,0,VALID,97.7215,VALID,0.0679233,VALID,20.671,VALID,20,VALID,0.994591,
2002-10-17, 03:29:00,VALID,917.301,VALID,0,VALID,97.7749,VALID,0.0509425,VALID,20.6775,VALID,23,VALID,0.678085,
2002-10-17, 03:30:00,VALID,917.293,VALID,0,VALID,97.8067,VALID,0.0339617,VALID,20.6707,VALID,26,VALID,0.453526,
2002-10-17, 03:31:00,VALID,917.304,VALID,0,VALID,97.7838,VALID,0.0849042,VALID,20.6608,VALID,26,VALID,0.0612981,
2002-10-17, 03:32:00,VALID,917.281,VALID,0,VALID,97.8207,VALID,0.0679233,VALID,20.6707,VALID,26,VALID,0.0596591,